Weather History for Newport, VT

Change the Weather History Date:

Wednesday, February 6, 2013

  Actual Average Record
Temperature  
Mean Temperature 14 °F -  
Max Temperature 22 °F 24 °F 44 °F (2012)
Min Temperature 6 °F 1 °F -27 °F (1934)
Degree Days  
Heating Degree Days 51    
Moisture  
Dew Point 3 °F    
Average Humidity 59    
Maximum Humidity 84    
Minimum Humidity 33    
Precipitation  
Precipitation 0.00 in - - ()
Sea Level Pressure  
Sea Level Pressure 29.99 in    
Wind  
Wind Speed 5 mph (WSW)    
Max Wind Speed 16 mph    
Max Gust Speed 24 mph    
Visibility 8 miles    
Events Snow    
Averages and records for this station are not official NWS values.
T = Trace of Precipitation, MM = Missing Value Source: NWS Daily Summary

Daily Weather History Graph

Daily Weather History Graph

Search for Another Location

Airport:

Trip Planner

Search our weather history database for the weather conditions in past years. The results will help you decide how hot, cold, wet, or windy it might be!

Date:

Astronomy

Feb. 06, 2013 Rise Set
Actual Time 7:01 AM EST 5:04 PM EST
Civil Twilight 6:31 AM EST 5:35 PM EST
Nautical Twilight 5:56 AM EST 6:10 PM EST
Astronomical Twilight 5:22 AM EST 6:44 PM EST
Moon 3:48 AM EST (2/6) 1:14 PM EST (2/6)
Length of Visible Light 11h 04m
Length of Day
10h 02m
Waning Crescent, 17% of the Moon is Illuminated
Feb 6
Waning Crescent
Feb 10
New
Feb 17
First Quarter
Feb 25
Full
Mar 4
Last Quarter

Hourly Weather History & Observations

Time (EST) Temp. Windchill Dew Point Humidity Pressure Visibility Wind Dir Wind Speed Gust Speed Precip Events Conditions
12:15 AM 12.2 °F - 1.8 °F 63% 29.84 in 10.0 mi Calm Calm - N/A   Overcast
12:35 AM 12.2 °F 6.1 °F 2.8 °F 66% 29.84 in 10.0 mi SSW 3.5 mph - N/A   Overcast
12:55 AM 12.9 °F 5.2 °F 1.4 °F 60% 29.83 in 10.0 mi South 4.6 mph - N/A   Overcast
1:15 AM 12.7 °F 5.0 °F 0.9 °F 59% 29.83 in 10.0 mi SSW 4.6 mph - N/A   Overcast
1:35 AM 12.2 °F 6.1 °F 0.9 °F 60% 29.83 in 10.0 mi SSW 3.5 mph - N/A   Mostly Cloudy
1:55 AM 12.2 °F 4.3 °F 2.1 °F 64% 29.83 in 10.0 mi SSW 4.6 mph - N/A   Mostly Cloudy
2:15 AM 14.0 °F 6.5 °F 1.0 °F 56% 29.83 in 10.0 mi South 4.6 mph - N/A   Overcast
2:35 AM 15.6 °F 8.3 °F 1.6 °F 54% 29.83 in 10.0 mi South 4.6 mph - N/A   Overcast
2:55 AM 16.5 °F 9.4 °F 4.5 °F 59% 29.82 in 10.0 mi South 4.6 mph - N/A   Overcast
3:15 AM 16.7 °F 8.3 °F 5.9 °F 63% 29.82 in 10.0 mi South 5.8 mph - N/A   Overcast
3:35 AM 16.3 °F 7.8 °F 6.1 °F 64% 29.82 in 10.0 mi South 5.8 mph - N/A   Overcast
4:15 AM 16.5 °F 9.4 °F 5.7 °F 63% 29.82 in 10.0 mi South 4.6 mph - N/A   Overcast
4:35 AM 15.8 °F 8.6 °F 5.0 °F 62% 29.83 in 10.0 mi South 4.6 mph - N/A   Overcast
4:55 AM 16.2 °F 7.6 °F 4.6 °F 61% 29.83 in 10.0 mi SSE 5.8 mph - N/A   Overcast
5:15 AM 16.5 °F 9.4 °F 5.7 °F 63% 29.83 in 10.0 mi SSE 4.6 mph - N/A   Overcast
5:35 AM 17.1 °F 7.6 °F 6.1 °F 62% 29.83 in 10.0 mi South 6.9 mph - N/A   Overcast
5:55 AM 17.4 °F 10.4 °F 7.7 °F 66% 29.83 in 10.0 mi South 4.6 mph - N/A   Overcast
6:15 AM 17.6 °F 10.7 °F 8.4 °F 67% 29.83 in 10.0 mi South 4.6 mph - N/A   Overcast
6:35 AM 17.6 °F 9.3 °F 9.1 °F 69% 29.83 in 10.0 mi SSW 5.8 mph - N/A   Overcast
6:55 AM 18.0 °F 11.1 °F 9.5 °F 70% 29.84 in 10.0 mi South 4.6 mph - N/A   Overcast
7:15 AM 18.1 °F 10.0 °F 10.4 °F 72% 29.84 in 10.0 mi South 5.8 mph - N/A Snow Light Snow
7:35 AM 18.5 °F 11.7 °F 11.1 °F 73% 29.85 in 7.0 mi South 4.6 mph - N/A Snow Light Snow
8:15 AM 18.9 °F 8.8 °F 13.1 °F 78% 29.86 in 3.0 mi South 8.1 mph - N/A Snow Light Snow
8:35 AM 19.2 °F 9.3 °F 14.2 °F 81% 29.86 in 1.5 mi SSW 8.1 mph - N/A Snow Light Snow
8:55 AM 19.8 °F 9.9 °F 15.1 °F 82% 29.87 in 2.0 mi SSW 8.1 mph - N/A Snow Light Snow
9:15 AM 20.3 °F 10.6 °F 15.4 °F 81% 29.87 in 2.0 mi South 8.1 mph - N/A Snow Light Snow
9:35 AM 21.2 °F 12.6 °F 16.2 °F 81% 29.87 in 2.0 mi South 6.9 mph - N/A Snow Light Snow
9:55 AM 21.9 °F 14.5 °F 16.7 °F 80% 29.87 in 1.5 mi South 5.8 mph - N/A Snow Light Snow
10:15 AM 22.3 °F 16.1 °F 17.6 °F 82% 29.88 in 1.0 mi SSW 4.6 mph - N/A Snow Light Snow
10:35 AM 22.1 °F 17.4 °F 18.0 °F 84% 29.90 in 0.8 mi SW 3.5 mph - N/A Snow Light Snow
10:55 AM 22.3 °F 13.9 °F 18.0 °F 83% 29.90 in 1.0 mi WNW 6.9 mph - N/A Snow Light Snow
11:15 AM 22.6 °F - 16.5 °F 77% 29.91 in 3.0 mi Calm Calm - N/A Snow Light Snow
11:35 AM 21.4 °F 12.8 °F 16.2 °F 80% 29.92 in 0.5 mi WNW 6.9 mph 17.3 mph N/A Snow Snow
11:55 AM 21.2 °F 16.4 °F 13.8 °F 73% 29.92 in 5.0 mi WNW 3.5 mph 17.3 mph N/A Snow Light Snow
12:15 PM 21.2 °F 9.5 °F 13.1 °F 71% 29.93 in 1.8 mi WNW 11.5 mph 16.1 mph N/A Snow Light Snow
12:35 PM 20.8 °F 12.1 °F 10.9 °F 66% 29.95 in 3.0 mi West 6.9 mph 16.1 mph N/A Snow Light Snow
12:55 PM 20.3 °F 7.2 °F 9.7 °F 64% 29.96 in 5.0 mi WNW 13.8 mph 17.3 mph N/A Snow Light Snow
1:15 PM 20.3 °F 6.1 °F 8.4 °F 60% 29.97 in 2.5 mi WNW 16.1 mph 21.9 mph N/A Snow Light Snow
1:35 PM 20.3 °F 9.0 °F 7.5 °F 58% 29.97 in 7.0 mi WNW 10.4 mph 16.1 mph N/A Snow Light Snow
1:55 PM 20.1 °F 8.8 °F 7.0 °F 57% 29.98 in 10.0 mi NW 10.4 mph - N/A Snow Light Snow
2:15 PM 20.7 °F 9.5 °F 6.6 °F 55% 29.99 in 10.0 mi NW 10.4 mph 17.3 mph N/A   Overcast
2:35 PM 19.9 °F 5.7 °F 5.4 °F 53% 30.01 in 7.0 mi West 16.1 mph 24.2 mph N/A   Overcast
2:55 PM 20.3 °F 10.6 °F 5.5 °F 53% 30.01 in 10.0 mi West 8.1 mph 20.7 mph N/A   Overcast
3:15 PM 19.9 °F 14.9 °F 5.4 °F 53% 30.02 in 10.0 mi WNW 3.5 mph - N/A   Overcast
3:35 PM 19.0 °F 10.0 °F 3.7 °F 51% 30.04 in 10.0 mi WNW 6.9 mph 16.1 mph N/A   Overcast
3:55 PM 18.1 °F 4.4 °F -2.2 °F 41% 30.05 in 10.0 mi West 13.8 mph 19.6 mph N/A   Scattered Clouds
4:15 PM 17.4 °F 4.7 °F -7.4 °F 33% 30.07 in 10.0 mi West 11.5 mph 19.6 mph N/A   Clear
4:35 PM 15.8 °F 10.2 °F -9.0 °F 33% 30.08 in 10.0 mi West 3.5 mph - N/A   Clear
4:55 PM 13.8 °F 4.9 °F -8.7 °F 36% 30.09 in 10.0 mi NW 5.8 mph - N/A   Clear
5:15 PM 14.0 °F 2.0 °F -9.4 °F 35% 30.11 in 10.0 mi NNW 9.2 mph - N/A   Clear
5:35 PM 12.9 °F 3.8 °F -8.0 °F 39% 30.13 in 10.0 mi NW 5.8 mph - N/A   Clear
5:55 PM 11.3 °F -0.4 °F -6.7 °F 44% 30.14 in 10.0 mi NW 8.1 mph - N/A   Clear
6:15 PM 10.8 °F -1.1 °F -6.0 °F 47% 30.16 in 10.0 mi NW 8.1 mph - N/A   Clear
6:35 PM 10.0 °F -0.9 °F -5.4 °F 50% 30.17 in 10.0 mi WNW 6.9 mph - N/A   Clear
6:55 PM 9.5 °F 1.2 °F -4.9 °F 52% 30.19 in 10.0 mi West 4.6 mph - N/A   Clear
7:15 PM 9.5 °F -1.5 °F -5.1 °F 52% 30.20 in 10.0 mi West 6.9 mph - N/A   Mostly Cloudy
7:35 PM 9.5 °F -5.2 °F -6.3 °F 49% 30.20 in 10.0 mi West 11.5 mph 16.1 mph N/A   Mostly Cloudy
7:55 PM 9.0 °F -3.2 °F -6.7 °F 49% 30.21 in 10.0 mi WNW 8.1 mph - N/A   Mostly Cloudy
8:15 PM 8.4 °F -3.9 °F -6.7 °F 50% 30.22 in 10.0 mi West 8.1 mph - N/A   Mostly Cloudy
8:35 PM 8.1 °F -3.2 °F -6.5 °F 52% 30.23 in 10.0 mi West 6.9 mph - N/A   Scattered Clouds
8:55 PM 7.7 °F -2.4 °F -6.7 °F 52% 30.25 in 10.0 mi West 5.8 mph - N/A   Mostly Cloudy
9:15 PM 7.7 °F -4.8 °F -6.9 °F 52% 30.26 in 10.0 mi WNW 8.1 mph - N/A   Mostly Cloudy
9:35 PM 7.5 °F -2.6 °F -8.0 °F 49% 30.27 in 10.0 mi West 5.8 mph - N/A   Overcast
9:55 PM 7.7 °F -3.7 °F -9.8 °F 45% 30.28 in 10.0 mi NW 6.9 mph - N/A   Overcast
10:15 PM 7.7 °F -2.4 °F -10.3 °F 44% 30.27 in 10.0 mi WNW 5.8 mph - N/A   Overcast
10:35 PM 7.3 °F -4.1 °F -10.1 °F 45% 30.28 in 10.0 mi NW 6.9 mph - N/A   Overcast
10:55 PM 6.4 °F -2.4 °F -10.3 °F 46% 30.28 in 10.0 mi NW 4.6 mph - N/A   Mostly Cloudy
11:15 PM 6.3 °F -5.4 °F -8.0 °F 52% 30.28 in 10.0 mi NW 6.9 mph - N/A   Mostly Cloudy
11:35 PM 6.1 °F -2.8 °F -7.6 °F 53% 30.29 in 10.0 mi WNW 4.6 mph - N/A   Mostly Cloudy